This demonstration page uses our WeatherBlox Daily Observations layout. Learn more.

Left ArrowRight Arrow

39.95238, -75.16362

Hourly Observations for May 19, 2016

Temp ( °F °C ) Dew Point ( °F °C ) Humidity (%) Winds ( mph kmh ) Pressure ( in mb ) Visibility ( mi km ) Precip ( " mm )
12:54 am 00:54 Cloudy 56 13.3 45 7.2 67 67 Calm 30.11 1020 10 16 0.00 0.00
1:54 am 01:54 Cloudy 55 12.8 46 7.8 72 72 N 7 11 30.10 1019 10 16 0.00 0.03
2:54 am 02:54 Cloudy with Light Rain 55 12.8 46 7.8 72 72 N 7 11 30.10 1019 10 16 0.00 0.03
3:54 am 03:54 Cloudy 55 12.8 47 8.3 74 74 Calm 30.09 1019 10 16 0.00 0.03
4:54 am 04:54 Cloudy 54 12.2 48 8.9 80 80 NE 3 6 30.09 1019 10 16 0.00 0.00
5:54 am 05:54 Cloudy 54 12.2 47 8.3 77 77 Calm 30.10 1019 10 16 0.00 0.00
6:54 am 06:54 Mostly Cloudy 56 13.3 48 8.9 75 75 SSE 3 6 30.11 1020 10 16 0.00 0.00
7:54 am 07:54 Mostly Cloudy 58 14.4 47 8.3 67 67 Calm 30.11 1020 10 16 0.00 0.00
8:54 am 08:54 Partly Cloudy 60 15.6 47 8.3 62 62 SSE 7 11 30.12 1020 10 16 0.00 0.00
9:54 am 09:54 Mostly Sunny 64 17.8 46 7.8 52 52 VRB 3 6 30.11 1020 10 16 0.00 0.00
10:54 am 10:54 Mostly Sunny 65 18.3 44 6.7 47 47 S 6 9 30.12 1020 10 16 0.00 0.00
11:54 am 11:54 Mostly Cloudy 68 20 39 3.9 35 35 SSW 6 9 30.12 1020 10 16 0.00 0.00
12:54 pm 12:54 Mostly Cloudy 68 20 40 4.4 36 36 W 6 9 30.11 1020 10 16 0.00 0.00
1:54 pm 13:54 Mostly Cloudy 70 21.1 40 4.4 34 34 SW 7 11 30.10 1019 10 16 0.00 0.00
2:54 pm 14:54 Mostly Cloudy 70 21.1 39 3.9 32 32 SSW 8 13 30.09 1019 10 16 0.00 0.00
3:54 pm 15:54 Mostly Cloudy 72 22.2 39 3.9 30 30 NW 9 15 30.08 1019 10 16 0.00 0.00
4:54 pm 16:54 Partly Cloudy 72 22.2 39 3.9 30 30 W 8 13 30.07 1018 10 16 0.00 0.00
5:54 pm 17:54 Mostly Cloudy 73 22.8 37 2.8 27 27 WNW 14 22 30.07 1018 10 16 0.00 0.00
6:54 pm 18:54 Partly Cloudy 70 21.1 38 3.3 31 31 NNW 7 11 30.09 1019 10 16 0.00 0.00
7:54 pm 19:54 Partly Cloudy 72 22.2 35 1.7 26 26 WNW 7 11 30.10 1019 10 16 0.00 0.00
8:54 pm 20:54 Partly Cloudy 68 20 36 2.2 31 31 NNW 6 9 30.12 1020 10 16 0.00 0.00
9:54 pm 21:54 Partly Cloudy 65 18.3 37 2.8 36 36 NNW 5 7 30.14 1021 10 16 0.00 0.00
10:54 pm 22:54 Clear 59 15 48 8.9 67 67 S 7 11 30.16 1021 10 16 0.00 0.00
11:54 pm 23:54 Clear 57 13.9 48 8.9 72 72 Calm 30.18 1022 10 16 0.00 0.00

Powered by AerisWeather